Other Public Products
Issued by NWS Grand Forks, ND

Home | Current Version | Previous Version | Graphics & Text | Print | Product List | Glossary On
Versions: 1 2 3 4 5 6 7 8 9 10 11 12 13 14 15 16 17 18 19 20 21 22 23 24 25 26 27 28 29 30 31 32 33 34 35 36 37 38 39 40 41 42 43 44 45 46 47 48 49 50
000
FPUS83 KFGF 191510
OPUFGF
PRAIRIE TO PINES WEATHER ROUNDUP
NATIONAL WEATHER SERVICE EASTERN NORTH DAKOTA/GRAND FORKS ND
1000 AM CDT SAT AUG 19 2017

 **SATELLITE DATA USED TO AUGMENT SKY COVER AT AUTOMATED STATIONS**
 *****  WEATHER ACROSS EASTERN NORTH DAKOTA  *****

CITY           SKY/WX    TMP DP  RH WIND       PRES   REMARKS
GRAND FORKS    FAIR      74  61  63 SW10      29.82F
GRAND FORKS AF FAIR      74  59  59 SW8       29.83S
GRAND CITY NWS NOT AVBL
BUXTON           N/A     72  61  68 S5          N/A
DEVILS LAKE    FAIR      73  58  59 SW14      29.81F
FARGO          FAIR      69  61  75 S8        29.88S
WAHPETON ARPT  FAIR      68  59  73 S3        29.91S
$$

 *****  WEATHER ACROSS CENTRAL AND WESTERN NORTH DAKOTA  *****

CITY           SKY/WX    TMP DP  RH WIND       PRES   REMARKS
JAMESTOWN      FAIR      71  63  75 S7        29.85F
BISMARCK       FAIR      71  61  70 SE8       29.81F
MINOT          FAIR      74  56  53 S13       29.73F
MINOT AFB      FAIR      75  55  49 S15       29.70F
GARRISON         N/A     67  58  72 S9        29.76F
WILLISTON      FAIR      70  53  54 S7        29.73F
DICKINSON      FAIR      70  53  54 SW10      29.78S
HETTINGER      FAIR      67  54  63 SW10      29.84F
$$

 *****  OTHER OBSERVATIONS NORTHEAST NORTH DAKOTA  *****

CITY           SKY/WX    TMP DP  RH WIND       PRES   REMARKS
WALHALLA       FAIR      75  73  94 SW8       29.77F
LANGDON        FAIR      70  63  78 SW12      29.81S
CAVALIER       FAIR      73  61  64 S7        29.78F
GRAFTON        FAIR      72  61  68 S8        29.82F
CANDO          FAIR      73  55  53 S10G17    29.80F
FORT TOTTEN      N/A     72  58  61 S8        29.95S
ROLLA          FAIR      68  57  68 SW12      29.78F
RUGBY          FAIR      73  57  56 S14       29.76F
 ***** THE ABOVE OBSERVATIONS ARE NON NWS ARE NOT QUALITY
        CONTROLLED AND MAY MIS-REPORT RAIN FOR SNOW...
$$

 *****  OTHER OBSERVATIONS SOUTHEAST NORTH DAKOTA *****

CITY           SKY/WX    TMP DP  RH WIND       PRES   REMARKS
COOPERSTOWN    FAIR      70  63  78 VRB6      29.86S
VALLEY CITY      N/A     70  66  88 S8        29.88F
OAKES          NOT AVBL
GWINNER        SUNNY     66  61  82 S9        29.89F
SHEYENNE NWR     N/A     70  62  77 SW7       29.95
BUFFALO          N/A     68  59  73 N6          N/A
WYNDMERE       NOT AVBL
 ***** THE ABOVE OBSERVATIONS ARE NON NWS ARE NOT QUALITY
       CONTROLLED AND MAY MIS-REPORT RAIN FOR SNOW...
$$

  *****  WEATHER ACROSS NORTHERN MINNESOTA  *****

CITY           SKY/WX    TMP DP  RH WIND       PRES   REMARKS
FLAG ISLAND    FAIR      72  57  60 CALM      29.82S
WARROAD        FAIR      70  61  73 SW6       29.83F
ROSEAU         FAIR      72  61  68 S6        29.83F
HALLOCK        FAIR      70  59  68 S7        29.81S
THF RVR FALLS  FAIR      71  58  63 S7        29.87S
HALSTAD        NOT AVBL
FOSSTON        FAIR      68  57  68 S8        29.89F
BAUDETTE       FAIR      72  59  63 SW6       29.84S
WASKISH        CLOUDY    72  63  73 W8        29.87S
CROOKSTON      FAIR      70  59  68 S8        29.85F
$$
  *****  WEATHER ACROSS CENTRAL AND WEST MINNESOTA  *****

CITY           SKY/WX    TMP DP  RH WIND       PRES   REMARKS
BEMIDJI        FAIR      70  60  72 SW6       29.90S
PARK RAPIDS    FAIR      71  63  75 W7        29.92F
WADENA         FAIR      68  61  77 SW6       29.94R
DETROIT LAKES  FAIR      68  61  77 S7        29.93S
MOORHEAD       FAIR      66  61  82 S6        29.90S
FERGUS FALLS   FAIR      70  63  78 S6        29.91F
ELBOW LAKE     FAIR      68  63  83 SE3       29.94S HAZE
MORRIS MN      FAIR      70  64  83 S5        29.93S
STAPLES        FAIR      70  61  73 W6        29.94S
WHEATON        FAIR      70  63  78 SE6       29.93S
$$
  *****  WEATHER ELSEWHERE ACROSS MINNESOTA  *****

CITY           SKY/WX    TMP DP  RH WIND       PRES   REMARKS
DULUTH         FAIR      70  61  73 NW5       29.91S
INTRNTL FALLS  FAIR      70  59  68 SW3       29.86R
ELY            FAIR      66  61  82 CALM      29.89S
CLOQUET        FAIR      72  61  68 W5        29.92R
BRAINERD       FAIR      67  61  81 W6        29.94S
HIBBING        FAIR      67  63  87 W3        29.90S
ALEXANDRIA     FAIR      70  60  70 W6        29.96F
SAINT CLOUD    FAIR      70  64  81 SW3       29.95S
MINNEAPOLIS    FAIR      64  59  83 SW6       29.97R
$$

  *****  WEATHER ACROSS SOUTH DAKOTA  *****

CITY           SKY/WX    TMP DP  RH WIND       PRES   REMARKS
SIOUX FALLS    FOG       63  62  97 E5        29.98S VSB 1/2
BROOKINGS      FAIR      64  61  90 S6        29.97F
WATERTOWN      FAIR      66  62  87 S8        29.95S
HURON          FAIR      68  61  78 MISG      29.92F
SISSETON         N/A     74  63  68 SW6       29.90S
ABERDEEN       FAIR      66  61  84 S10       29.90F
MITCHELL       FAIR      68  62  81 SE9       29.94F
PIERRE         FAIR      74  56  53 S20       29.83F
MOBRIDGE       FAIR      70  61  73 S14       29.82F
RAPID CITY     FAIR      75  53  46 SW3       29.88S
$$

  *****  SOME WEATHER IN NEARBY STATES *****

CITY           SKY/WX    TMP DP  RH WIND       PRES   REMARKS
GLASGOW MT     FAIR      65  47  52 NW21G30   29.83R
GREAT FALLS MT FAIR      58  45  62 N10       30.04R
CHEYENNE WY    FAIR      76  39  26 W13       30.15S
SCOTTSBLUFF NE FAIR      75  51  43 NW6       29.98S
OMAHA NE       FAIR      70  61  73 N5        29.98F
DES MOINES IA  CLOUDY    70  64  81 CALM      29.96R
DAVENPORT IA   FAIR      72  63  73 E8        30.00R
CHICAGO IL     FAIR      75  59  57 CALM      29.96R
EAU CLAIRE WI  FAIR      69  62  78 W8        29.96R
LA CROSSE WI   FAIR      67  62  84 S3        29.99R
$$

  *****  SOME NATIONAL WEATHER *****

CITY           SKY/WX    TMP DP  RH WIND       PRES   REMARKS
LA GUARDIA NY  FAIR      83  65  54 NW7       29.85S
RALEIGH NC     FAIR      85  66  53 NE8       29.98R
ATLANTA GA     FAIR      81  66  60 N6        30.05R
NEW ORLEANS LA FAIR      88  77  69 NW5       30.02R HX 100
OKLAHOMA CITY  FAIR      83  73  72 SW9       30.00F
ALBUQUERQUE NM PTSUNNY   74  52  46 W5        30.22R
SALT LAKE CITY FAIR      75  43  31 SE7       30.07R
LOS ANGELES CA PTSUNNY   68  62  81 SW6       29.98R
BOISE ID       FAIR      65  37  35 CALM      30.04R
SEATTLE WA     PTSUNNY   60  50  69 NE10      30.21R
$$

*** WEATHER ACROSS MANITOBA...SASKATCHEWAN AND ONTARIO ***
                ***ONTARIO***

CITY           SKY/WX    TMP DP  RH WIND       PRES   REMARKS
GERALDTON      MOSUNNY   66  61  82 W3        29.77F
THUNDER BAY    MOSUNNY   68  63  83 W6        29.81F
SIOUX LOOKOUT  SUNNY     70  59  68 S6        29.81S
TORONTO        PTSUNNY   70  61  73 W16G23    29.83R
BIG TROUT LK   SUNNY     66  57  72 W8        29.65S
PICKLE LAKE    MOSUNNY   68  55  64 W7        29.76S
DRYDEN         SUNNY     72  57  60 W7        29.83S
KENORA         SUNNY     72  57  60 SW9       29.83R
$$
                *** MANITOBA***

CITY           SKY/WX    TMP DP  RH WIND       PRES   REMARKS
BRANDON        PTSUNNY   70  57  64 SW7       29.72F
DAUPHIN        SUNNY     72  57  60 E3        29.65F
ISLAND LAKE    NOT AVBL
PILOT MOUND      N/A     68  57  68 SW14G20     N/A
THE PAS        MOSUNNY   70  55  60 SE6       29.58F
THOMPSON       MOSUNNY   64  59  82 E3        29.62S
WINNIPEG       PTSUNNY   70  57  64 S8        29.76S
LYNN LAKE      MOSUNNY   59  57  94 MISG      29.58F
CHURCHILL      CLOUDY    52  50  93 NW12      29.65S
$$
                ***SASKATCHEWAN***

CITY           SKY/WX    TMP DP  RH WIND       PRES   REMARKS
ESTEVAN        PTSUNNY   75  52  43 S16       29.68F
KINDERSLEY     PTSUNNY   55  45  67 NW16G26   29.87R
LLOYDMINSTER   MOSUNNY   54  45  71 W16G22    29.83R
PRINCE ALBERT  LGT RAIN  61  55  82 NW13      29.68R
REGINA         MOSUNNY   66  50  55 W17G28    29.69R
YORKTON        SUNNY     70  55  60 S12G17    29.59F
N. BATTLEFORD  SUNNY     57  48  72 W15G25    29.82R



USA.gov is the U.S. government's official web portal to all federal, state and local government web resources and services.